Location: Unspecified
(0.0000°N, 0.0000°E)
Time: 02:46:39
(UTC+00:00)

COSMOS 2489 - Pass Details

Date: 11 June 2023
Orbit: 1477 x 1512 km, 82.5° (Epoch: 29 September)

Event Time Altitude Azimuth Distance (km) Brightness Sun altitude
Rises 02:43:57 0° 16° (NNE) 4,640 ? -43.9°
Reaches altitude 10° 02:47:12 10° 25° (NNE) 3,661 ? -43.2°
Maximum altitude 02:54:58 35° 87° (E) 2,253 ? -41.6°
Drops below altitude 10° 03:02:43 10° 149° (SSE) 3,663 ? -39.9°
Sets 03:05:55 0° 157° (SSE) 4,642 ? -39.2°
